Turaif, Saudi Arabia

12:12 AM +03 on March 26, 2017 (GMT +0300)
Turaif

Weather History for OETR - November, 2012

Change the Weather History Date:

Tuesday, November 27, 2012

  Actual Average Record
Temperature  
Mean Temperature 50 °F -  
Max Temperature 60 °F 58 °F 80 °F (2013)
Min Temperature 39 °F 38 °F 28 °F (2011)
Degree Days  
Heating Degree Days 16    
Moisture  
Dew Point 41 °F    
Average Humidity 70    
Maximum Humidity 93    
Minimum Humidity 33    
Precipitation  
Precipitation 0.00 in - - ()
Sea Level Pressure  
Sea Level Pressure 30.09 in    
Wind  
Wind Speed 3 mph ()    
Max Wind Speed 9 mph    
Max Gust Speed -    
Visibility 6.0 miles    
Events      
Averages and records for this station are not official NWS values.
T = Trace of Precipitation, MM = Missing Value Source: Averaged Metar Reports

Daily Weather History Graph

Daily Weather History Graph

Search for Another Location

Airport or City:

Trip Planner

Search our weather history database for the weather conditions in past years. The results will help you decide how hot, cold, wet, or windy it might be!

Date:

Astronomy

Nov. 27, 2012 Rise Set
Actual Time 7:03 AM +03 5:21 PM +03
Civil Twilight 6:37 AM +03 5:47 PM +03
Nautical Twilight 6:07 AM +03 6:17 PM +03
Astronomical Twilight 5:38 AM +03 6:47 PM +03
Moon 4:37 PM +03 (11/27) 5:51 AM +03 (11/27)
Length of Visible Light 11h 10m
Length of Day
10h 17m
Waxing Gibbous, 99% of the Moon is Illuminated
Nov 27
Waxing Gibbous
Nov 28
Full
Dec 6
Last Quarter
Dec 13
New
Dec 20
First Quarter

Hourly Weather History & Observations

Time (+03) Temp. Windchill Dew Point Humidity Pressure Visibility Wind Dir Wind Speed Gust Speed Precip Events Conditions
12:00 AM 46 °F - 43 °F 84%  in 6 mi North 6.9 mph - -  
12:00 AM 46.4 °F 42.9 °F 42.8 °F 87% 30.06 in - North 6.9 mph - N/A   Clear
1:00 AM 46.4 °F 42.9 °F 42.8 °F 87% 30.06 in - NNE 6.9 mph - N/A   Clear
2:00 AM 44.6 °F 42.2 °F 41.0 °F 87% 30.06 in - East 4.6 mph - N/A   Clear
3:00 AM 43 °F - 41 °F 90%  in 6 mi Calm Calm - -  
3:00 AM 42.8 °F - 41.0 °F 93% 30.06 in - Calm Calm - N/A   Clear
4:00 AM 42.8 °F 40.1 °F 41.0 °F 93% 30.06 in - NW 4.6 mph - N/A   Clear
5:00 AM 41.0 °F - 39.2 °F 93% 30.06 in - Calm Calm - N/A   Clear
6:00 AM 43 °F - 41 °F 90%  in 6 mi Calm Calm - -  
6:00 AM 41.0 °F - 37.4 °F 87% 30.06 in - Calm Calm - N/A   Clear
7:00 AM 39.2 °F 35.9 °F 37.4 °F 93% 30.09 in - NE 4.6 mph - N/A   Clear
8:00 AM 41.0 °F 38.0 °F 39.2 °F 93% 30.09 in - East 4.6 mph - N/A   Clear
9:00 AM 48 °F - 43 °F 76%  in 6 mi ESE 4.6 mph - -  
9:00 AM 48.2 °F - 42.8 °F 82% 30.12 in - ESE 4.6 mph - N/A   Clear
10:00 AM 53.6 °F - 44.6 °F 72% 30.12 in - ESE 2.3 mph - N/A   Clear
11:00 AM 55.4 °F - 42.8 °F 63% 30.12 in - Calm Calm - N/A   Clear
12:00 PM 57 °F - 46 °F 58%  in 6 mi Calm Calm - -  
12:00 PM 57.2 °F - 46.4 °F 67% 30.09 in - Calm Calm - N/A   Clear
1:00 PM 59.0 °F - 42.8 °F 55% 30.09 in - Calm Calm - N/A   Clear
2:00 PM 59.0 °F - 39.2 °F 48% 30.06 in - Calm Calm - N/A   Clear
3:00 PM 61 °F - 39 °F 33%  in 6 mi Calm Calm - -  
3:00 PM 60.8 °F - 39.2 °F 45% 30.06 in - Calm Calm - N/A   Clear
4:00 PM 60.8 °F - 41.0 °F 48% 30.06 in - Calm Calm - N/A   Clear
5:00 PM 59.0 °F - 39.2 °F 48% 30.06 in - Calm Calm - N/A   Clear
6:00 PM 57 °F - 39 °F 40%  in 6 mi NW 6.9 mph - -  
6:00 PM 57.2 °F - 39.2 °F 51% 30.09 in - NW 6.9 mph - N/A   Clear
7:00 PM 53.6 °F - 37.4 °F 54% 30.09 in - NNW 6.9 mph - N/A   Clear
8:00 PM 51.8 °F - 39.2 °F 62% 30.15 in - North 4.6 mph - N/A   Clear
9:00 PM 50 °F - 39 °F 56%  in 6 mi NE 6.9 mph - -  
9:00 PM 50.0 °F - 39.2 °F 66% 30.15 in - NE 6.9 mph - N/A   Clear
10:00 PM 48.2 °F - 37.4 °F 66% 30.15 in - ENE 9.2 mph - N/A   Clear
11:00 PM 46.4 °F 42.9 °F 37.4 °F 71% 30.18 in - East 6.9 mph - N/A   Clear